TimeEST,TemperatureF,Dew PointF,Humidity,Sea Level PressureIn,VisibilityMPH,Wind Direction,Wind SpeedMPH,Gust SpeedMPH,PrecipitationIn,Events,Conditions,WindDirDegrees,DateUTC
12:05 AM,36.0,34.0,93,29.68,1.2,East,11.5,26.5,N/A,Rain,Rain,80,2013-11-27 05:05:00
12:53 AM,35.1,34.0,96,29.67,0.8,ESE,13.8,-,N/A,Rain,Heavy Rain,110,2013-11-27 05:53:00
1:10 AM,35.1,34.0,96,29.59,1.2,East,15.0,-,N/A,Rain,Heavy Rain,100,2013-11-27 06:10:00
1:53 AM,37.0,36.0,96,29.59,1.8,East,12.7,-,N/A,Rain,Heavy Rain,100,2013-11-27 06:53:00
2:22 AM,39.0,37.9,96,29.51,2.0,ESE,9.2,-,N/A,Rain,Rain,110,2013-11-27 07:22:00
2:34 AM,39.9,39.0,97,29.49,1.8,ESE,11.5,-,N/A,Rain,Rain,110,2013-11-27 07:34:00
2:40 AM,41.0,39.9,96,29.49,2.0,ESE,11.5,-,N/A,Rain,Light Rain,110,2013-11-27 07:40:00
2:53 AM,41.0,39.9,96,29.52,2.0,ESE,11.5,-,N/A,Rain,Rain,110,2013-11-27 07:53:00
3:11 AM,42.1,41.0,96,29.46,1.5,East,11.5,-,N/A,Rain,Rain,100,2013-11-27 08:11:00
3:37 AM,42.1,41.0,96,29.44,2.0,East,8.1,-,N/A,Rain,Rain,100,2013-11-27 08:37:00
3:43 AM,42.1,42.1,100,29.44,1.8,SE,4.6,-,N/A,Rain,Rain,130,2013-11-27 08:43:00
3:53 AM,43.0,42.1,97,29.48,1.5,East,3.5,-,N/A,Rain,Rain,90,2013-11-27 08:53:00
4:03 AM,43.0,42.1,97,29.43,2.5,ESE,5.8,-,N/A,Rain,Light Rain,110,2013-11-27 09:03:00
4:14 AM,42.1,39.9,92,29.44,1.8,West,10.4,-,N/A,Rain,Light Rain,280,2013-11-27 09:14:00
4:18 AM,42.1,39.9,92,29.44,2.5,WNW,8.1,-,N/A,Rain,Light Rain,290,2013-11-27 09:18:00
4:25 AM,42.1,41.0,96,29.43,4.0,NW,4.6,-,N/A,Rain,Light Rain,320,2013-11-27 09:25:00
4:37 AM,42.1,41.0,96,29.42,4.0,NNW,4.6,-,N/A,Rain,Light Rain,340,2013-11-27 09:37:00
4:53 AM,42.1,39.9,92,29.47,7.0,WNW,6.9,-,N/A,Rain,Light Rain,300,2013-11-27 09:53:00
5:03 AM,42.1,39.9,92,29.43,6.0,WNW,8.1,-,N/A,Rain,Light Rain,300,2013-11-27 10:03:00
5:18 AM,42.1,41.0,96,29.42,2.5,WNW,8.1,-,N/A,Rain,Light Rain,290,2013-11-27 10:18:00
5:26 AM,42.1,39.9,92,29.42,4.0,WNW,6.9,-,N/A,Rain,Light Rain,300,2013-11-27 10:26:00
5:53 AM,39.0,37.0,93,29.45,10.0,NW,12.7,24.2,N/A,Rain,Light Rain,310,2013-11-27 10:53:00
6:06 AM,37.9,36.0,93,29.42,10.0,NW,9.2,19.6,N/A,Rain,Light Rain,310,2013-11-27 11:06:00
6:33 AM,37.0,36.0,96,29.44,4.0,WNW,10.4,-,N/A,Rain,Rain,300,2013-11-27 11:33:00
6:53 AM,37.0,35.1,93,29.48,6.0,NW,11.5,-,N/A,Rain,Rain,310,2013-11-27 11:53:00
7:31 AM,36.0,34.0,93,29.43,9.0,NNW,11.5,21.9,N/A,Rain,Light Rain,330,2013-11-27 12:31:00
7:51 AM,35.6,33.8,93,29.43,-9999.0,NW,11.5,-,N/A,Rain,Light Rain,310,2013-11-27 12:51:00
7:53 AM,35.1,33.1,92,29.48,-9999.0,NW,11.5,-,N/A,Rain,Light Rain,310,2013-11-27 12:53:00
8:53 AM,34.0,30.9,89,29.50,10.0,NNW,17.3,28.8,N/A,Rain,Light Rain,330,2013-11-27 13:53:00
9:53 AM,32.0,30.0,92,29.49,10.0,NW,19.6,29.9,N/A,,Overcast,320,2013-11-27 14:53:00
10:38 AM,32.0,28.9,88,29.43,10.0,NNW,21.9,32.2,N/A,,Overcast,330,2013-11-27 15:38:00
10:53 AM,32.0,28.9,88,29.46,10.0,NW,21.9,29.9,N/A,,Overcast,320,2013-11-27 15:53:00
11:53 AM,32.0,28.9,88,29.44,10.0,NW,25.3,39.1,N/A,,Overcast,320,2013-11-27 16:53:00
12:12 PM,32.0,28.9,88,29.40,10.0,NW,20.7,33.4,N/A,,Overcast,320,2013-11-27 17:12:00
12:53 PM,32.0,28.9,88,29.47,5.0,NW,20.7,34.5,N/A,Snow,Light Snow,310,2013-11-27 17:53:00
1:46 PM,30.9,28.0,89,29.41,1.8,NW,18.4,34.5,N/A,Snow,Light Snow,320,2013-11-27 18:46:00
1:53 PM,30.9,28.0,89,29.46,1.0,NW,23.0,35.7,N/A,Snow,Light Snow,320,2013-11-27 18:53:00
2:05 PM,30.9,28.0,89,29.38,2.0,NW,19.6,32.2,N/A,Snow,Light Snow,320,2013-11-27 19:05:00
2:17 PM,30.9,28.0,89,29.39,2.0,NW,19.6,34.5,N/A,Snow,Light Snow,320,2013-11-27 19:17:00
2:31 PM,30.9,27.0,85,29.37,1.5,NW,23.0,36.8,N/A,Snow,Light Snow,320,2013-11-27 19:31:00
2:53 PM,30.9,27.0,85,29.43,2.0,NW,23.0,32.2,N/A,Snow,Light Snow,320,2013-11-27 19:53:00
3:02 PM,30.9,27.0,85,29.41,1.8,NW,17.3,35.7,N/A,Snow,Light Snow,320,2013-11-27 20:02:00
3:36 PM,30.0,27.0,88,29.42,-9999.0,NW,21.9,31.1,N/A,Snow,Light Snow,310,2013-11-27 20:36:00
3:53 PM,30.0,27.0,88,29.47,-9999.0,NW,23.0,31.1,N/A,Snow,Snow,320,2013-11-27 20:53:00
4:04 PM,30.0,27.0,88,29.37,-9999.0,NW,23.0,32.2,N/A,Snow,Snow,320,2013-11-27 21:04:00
4:06 PM,30.0,27.0,88,29.38,-9999.0,NW,19.6,32.2,N/A,Snow,Snow,320,2013-11-27 21:06:00
4:18 PM,30.0,27.0,88,29.42,0.5,NW,20.7,39.1,N/A,Fog-Snow,Snow,310,2013-11-27 21:18:00
4:46 PM,30.0,27.0,88,29.43,1.0,NW,23.0,35.7,N/A,Snow,Light Snow,320,2013-11-27 21:46:00
4:53 PM,30.0,26.1,85,29.46,2.5,NW,20.7,35.7,N/A,Snow,Light Snow,320,2013-11-27 21:53:00
5:02 PM,30.0,26.1,85,29.43,4.0,NW,23.0,36.8,N/A,Snow,Light Snow,320,2013-11-27 22:02:00
5:53 PM,30.0,25.0,82,29.52,5.0,NW,23.0,39.1,N/A,Snow,Light Snow,310,2013-11-27 22:53:00
6:38 PM,28.0,23.0,81,29.49,2.5,NW,29.9,41.4,N/A,Snow,Light Snow,310,2013-11-27 23:38:00
6:45 PM,28.0,23.0,81,29.50,-9999.0,NW,20.7,40.3,N/A,Snow,Light Snow,310,2013-11-27 23:45:00
6:53 PM,28.0,23.0,81,29.56,-9999.0,NW,28.8,44.9,N/A,Snow,Light Snow,310,2013-11-27 23:53:00
7:27 PM,27.0,19.9,75,29.52,-9999.0,NW,21.9,41.4,N/A,Snow,Light Snow,320,2013-11-28 00:27:00
7:41 PM,26.1,19.9,78,29.52,4.0,NW,23.0,44.9,N/A,Snow,Light Snow,310,2013-11-28 00:41:00
7:53 PM,27.0,19.0,72,29.59,9.0,NW,26.5,40.3,N/A,Snow,Light Snow,310,2013-11-28 00:53:00
8:53 PM,27.0,15.1,61,29.62,10.0,WNW,17.3,39.1,N/A,,Overcast,300,2013-11-28 01:53:00
9:53 PM,26.1,16.0,66,29.66,10.0,WNW,23.0,35.7,N/A,Snow,Light Snow,300,2013-11-28 02:53:00
10:53 PM,25.0,14.0,63,29.70,10.0,WNW,15.0,32.2,N/A,,Mostly Cloudy,300,2013-11-28 03:53:00
11:53 PM,24.1,12.9,62,29.76,10.0,WNW,18.4,28.8,N/A,,Mostly Cloudy,300,2013-11-28 04:53:00